Regional Weather Roundup
Issued by NWS Northern Indiana

Home | Current Version | Previous Version | Graphics & Text | Print | Product List | Glossary On
Versions: 1 2 3 4 5 6 7 8 9 10 11 12 13 14 15 16 17 18 19 20 21 22 23 24 25 26 27 28 29 30 31 32 33 34 35 36 37 38 39 40 41 42 43 44 45 46 47 48 49 50
000
ASUS43 KIWX 231300
RWRIWX

KIWX WEATHER ROUNDUP
NATIONAL WEATHER SERVICE NORTHERN INDIANA
900 AM EDT SUN JUL 23 2017

NOTE: "FAIR" INDICATES FEW OR NO CLOUDS BELOW 12,000 FEET WITH NO
SIGNIFICANT WEATHER AND/OR OBSTRUCTIONS TO VISIBILITY.

* THESE STATIONS ARE NOT UNDER NWS QUALITY CONTROL. THEY ALSO MAY NOT
  REPORT WEATHER SUCH AS PRECIPITATION OR FOG.

INZ001>027-231400-
NORTHERN INDIANA

CITY           SKY/WX    TMP DP  RH WIND       PRES   REMARKS
GARY*          PTSUNNY   77  72  83 CALM      29.82R
SOUTH BEND     MOSUNNY   74  70  87 S5        29.81F
GOSHEN         PTSUNNY   74  69  85 CALM      29.82R
MONTICELLO*    LGT RAIN  74  73  95 CALM      29.82R
FORT WAYNE     CLOUDY    74  69  85 CALM      29.83R
PERU/GRISSOM   CLOUDY    76  74  92 CALM      29.82R

$$
INZ028>050-231400-
CENTRAL INDIANA

CITY           SKY/WX    TMP DP  RH WIND       PRES   REMARKS
LAFAYETTE      CLOUDY    75  75 100 W5        29.82S
KOKOMO*        CLOUDY    75  73  93 CALM      29.84R
MUNCIE*        CLOUDY    74  70  87 SW7       29.84R
INDIANAPOLIS   CLOUDY    72  70  93 SW14      29.85R

$$
MIZ043>046-050>051-056>058-064>065-071>073-077>080-231400-
SOUTHWEST LOWER MICHIGAN

CITY           SKY/WX    TMP DP  RH WIND       PRES   REMARKS
BATTLE CREEK   CLOUDY    71  68  90 S5        29.82F
BENTON HARBOR  PTSUNNY   72  68  87 VRB5      29.81R FOG
COLDWATER*     CLOUDY    69  69 100 CALM      29.81F FOG
HILLSDALE*     FOG       68  66  94 CALM      29.82F VSB 3/4
HOLLAND        RAIN      69  67  93 SW6       29.80F FOG
GRAND RAPIDS   CLOUDY    70  69  97 SW12      29.78F FOG
KALAMAZOO      CLOUDY    70  67  90 W3        29.82S FOG
STURGIS*       CLOUDY    69  69 100 CALM      29.80F FOG
THREE RIVERS*  CLOUDY    70  70 100 S3        29.81F FOG

$$
OHZ001>008-015>018-024>025-231400-
NORTHWEST OHIO

CITY           SKY/WX    TMP DP  RH WIND       PRES   REMARKS
DEFIANCE       PTSUNNY  N/A N/A N/A NE5       29.82S
FINDLAY        MOSUNNY   75  68  78 N6        29.81F
TOLEDO EXPRESS CLOUDY    70  69  97 CALM      29.82R
TOLEDO METCALF CLOUDY    72  68  87 SW5       29.82R
LIMA           CLOUDY    73  71  93 S3        29.83S

$$
AND FOR LAKE MICHIGAN COASTAL AND OPEN LAKE BUOY OBSERVATIONS

STATION/POSITION TEMP    WIND        PRES    VSBY  WAVE
                 AIR SEA DIR/SP/G                  HT/PER
                 (F)     (DEG/KT/KT) (MB)    (MI)  (FT/S)
CALUMET HARBOR    75     210/  2/  3 1008.9F
MICHIGAN CITY     75     150/  1/  1   N/A
BURNS HARBOR      74     290/  1/  3 1010.2R
SAINT JOSEPH      71      CALM  /  2 1009.5
SOUTH LAKE BUOY   69 70   70/  8/ 10 1009.0          0
4 MI NW BRIDGMAN  74 74  170/  2/  2 1009.0R         0
MICHIGAN CITY     74 75  200/  2/  2   N/A           0

$$
&&




USA.gov is the U.S. government's official web portal to all federal, state and local government web resources and services.